GW1618 Weather Reports


time (UTC)temp
F
wind
direction
speed
knots
gust
knots
rain 1hr
in
rain 24hr
in
rain mn
in
humidity
%
barometer
mb
20260903033130 60 242 2.6 4.3 0.00 0.14 0.14 69 1005.9
20260903032631 60 180 2.6 5.2 0.00 0.14 0.14 68 1005.8
20260903032130 60 179 2.6 5.2 0.00 0.14 0.14 68 1005.8
20260903032106 60 157 4.3 9.6 0.00 0.14 0.14 68 1005.8
20260903031138 60 172 6.1 11.3 0.00 0.14 0.14 68 1005.6
20260903030640 60 188 5.2 11.3 0.00 0.14 0.14 68 1005.6
20260903030133 60 205 5.2 10.4 0.00 0.14 0.14 68 1005.6
20260903025636 60 215 4.3 9.6 0.00 0.14 0.14 68 1005.4
20260903025133 61 217 5.2 9.6 0.00 0.14 0.14 68 1005.4
20260903024852 61 196 6.1 11.3 0.00 0.14 0.14 68 1005.4
20260903024631 61 196 6.1 11.3 0.00 0.14 0.14 68 1005.4
20260903024133 61 215 6.1 11.3 0.00 0.14 0.14 68 1005.1
20260903023633 61 205 6.1 11.3 0.00 0.14 0.14 68 1005.1
20260903023223 61 190 5.2 13.0 0.00 0.14 0.14 67 1005.1
20260903022848 61 229 6.1 13.0 0.00 0.14 0.14 66 1005.0
20260903022558 62 212 7.0 13.9 0.00 0.14 0.14 66 1005.0
20260903021629 62 204 5.2 13.9 0.00 0.14 0.14 65 1005.0
20260903021133 62 232 5.2 16.5 0.00 0.14 0.14 66 1005.0
20260903020646 62 217 5.2 16.5 0.00 0.14 0.14 65 1005.0
20260903020432 62 226 3.5 8.7 0.00 0.14 0.14 66 1005.0
20260903020207 62 226 3.5 8.7 0.00 0.14 0.14 66 1005.0
20260903015702 62 209 3.5 7.8 0.00 0.14 0.14 68 1005.0
20260903015637 62 180 3.5 7.8 0.00 0.14 0.14 68 1005.0
20260903014629 62 234 4.3 7.8 0.00 0.14 0.14 68 1005.0
20260903014132 62 221 4.3 8.7 0.00 0.14 0.14 68 1004.7
20260903013630 62 228 6.1 10.4 0.00 0.14 0.14 68 1004.7
20260903012631 62 188 6.1 13.9 0.00 0.14 0.14 67 1004.5
20260903012458 62 216 5.2 16.5 0.00 0.14 0.14 67 1004.5
20260903011906 62 189 7.0 16.5 0.00 0.14 0.14 68 1004.5
20260903011134 62 224 5.2 15.6 0.00 0.14 0.14 68 1004.5
20260903010936 62 228 5.2 12.2 0.00 0.14 0.14 68 1004.5
20260903010444 62 244 7.0 13.9 0.00 0.14 0.14 69 1004.5
20260903005633 61 254 7.0 13.9 0.00 0.14 0.14 70 1004.5
20260903005120 61 246 8.7 17.4 0.00 0.14 0.14 71 1004.5
20260903004611 61 234 9.6 19.1 0.00 0.14 0.14 70 1004.5
20260903004542 61 212 8.7 19.1 0.00 0.14 0.14 70 1004.5
20260903003552 61 262 6.1 16.5 0.00 0.14 0.14 70 1004.5
20260903003110 60 233 5.2 13.9 0.00 0.14 0.14 72 1004.5
20260903002600 60 224 6.1 13.9 0.00 0.14 0.14 72 1004.5
20260903002057 60 276 6.1 13.9 0.00 0.14 0.14 72 1004.5
20260903001554 60 257 7.0 13.0 0.00 0.14 0.14 73 1004.5
20260903001051 60 248 7.8 16.5 0.00 0.14 0.14 74 1004.0
20260903000549 61 223 7.8 16.5 0.00 0.14 0.14 73 1004.0
20260903000053 62 258 7.0 13.0 0.00 0.14 0.14 76 1004.0
20260902235545 62 250 8.7 17.4 0.00 0.14 0.14 75 1003.7
20260902235044 62 261 7.8 18.2 0.00 0.14 0.14 74 1003.7
20260902234842 62 300 8.7 19.1 0.00 0.14 0.14 76 1003.7
20260902234044 62 229 11.3 20.9 0.00 0.14 0.14 75 1003.5
20260902233537 61 196 8.7 20.9 0.00 0.14 0.14 75 1003.5
20260902233034 61 188 8.7 20.0 0.00 0.14 0.14 76 1003.5
20260902232537 61 194 10.4 20.0 0.00 0.14 0.14 76 1003.4
20260902232035 61 204 10.4 24.3 0.00 0.14 0.14 76 1003.4
20260902231535 61 174 10.4 24.3 0.00 0.14 0.14 76 1003.4
20260902231034 61 185 10.4 18.2 0.00 0.14 0.14 76 1003.3
20260902230837 60 188 8.7 17.4 0.00 0.14 0.14 76 1003.3
20260902230041 60 182 10.4 20.9 0.00 0.14 0.14 76 1003.3
20260902225618 60 204 11.3 20.9 0.01 0.14 0.14 76 1003.0
20260902224531 60 192 10.4 22.6 0.02 0.14 0.14 76 1003.0
20260902224029 60 219 8.7 19.1 0.02 0.14 0.14 77 1002.9
20260902223548 60 220 7.8 15.6 0.03 0.14 0.14 78 1002.9
20260902223031 59 192 7.0 14.8 0.03 0.14 0.14 80 1002.9
20260902222529 59 191 6.1 12.2 0.04 0.14 0.14 81 1002.8
20260902222030 59 152 5.2 10.4 0.05 0.14 0.14 83 1002.8
20260902221529 59 184 5.2 10.4 0.06 0.14 0.14 83 1002.8
20260902221034 59 159 5.2 9.6 0.07 0.14 0.14 83 1002.9
20260902220530 59 192 5.2 10.4 0.07 0.14 0.14 84 1002.9
20260902220034 58 172 6.1 13.9 0.07 0.14 0.14 84 1002.9
20260902215539 58 144 5.2 13.9 0.07 0.13 0.13 84 1003.0
20260902215413 58 169 4.3 8.7 0.08 0.13 0.13 84 1003.0
20260902214534 58 144 4.3 9.6 0.07 0.12 0.12 84 1003.0
20260902214031 58 139 4.3 9.6 0.08 0.12 0.12 83 1003.2
20260902213530 59 194 5.2 10.4 0.07 0.12 0.11 83 1003.2
20260902213030 59 180 6.1 13.0 0.08 0.12 0.11 83 1003.2
20260902212852 59 188 7.8 13.9 0.07 0.11 0.10 83 1003.3
20260902212033 59 186 7.8 13.9 0.06 0.10 0.08 81 1003.3
20260902211535 59 189 6.1 13.0 0.06 0.09 0.08 81 1003.3
20260902211031 59 159 5.2 9.6 0.05 0.08 0.07 82 1003.4
20260902210531 59 174 4.3 7.8 0.06 0.08 0.07 82 1003.4
20260902210129 59 205 5.2 9.6 0.06 0.08 0.07 82 1003.4
20260902205031 59 220 7.0 15.6 0.04 0.06 0.05 80 1003.5
20260902204633 59 200 7.8 15.6 0.05 0.06 0.05 80 1003.5
20260902203530 59 157 6.1 13.9 0.04 0.05 0.04 80 1003.5
20260902203337 60 186 7.0 14.8 0.03 0.04 0.03 80 1003.5
20260902202518 60 184 7.0 14.8 0.03 0.04 0.03 79 1003.7
20260902202007 60 177 6.1 14.8 0.02 0.03 0.02 79 1003.7
20260902201503 60 168 7.8 16.5 0.02 0.03 0.02 79 1003.7
20260902200958 60 173 9.6 16.5 0.02 0.03 0.02 77 1004.0
20260902200444 61 177 9.6 16.5 0.01 0.02 0.01 76 1004.0
20260902195946 61 190 10.4 24.3 0.01 0.02 0.01 75 1004.0
20260902195436 62 177 11.3 24.3 0.01 0.02 0.01 73 1003.6
20260902195154 62 171 9.6 18.2 0.00 0.01 0.00 72 1003.6
20260902194437 62 180 7.8 17.4 0.00 0.01 0.00 71 1003.6
20260902193935 63 154 7.8 16.5 0.00 0.01 0.00 70 1003.9
20260902193439 63 163 9.6 19.1 0.00 0.01 0.00 69 1003.9
20260902192935 63 236 9.6 19.1 0.00 0.01 0.00 68 1003.9
20260902192433 63 206 9.6 19.1 0.00 0.01 0.00 68 1004.0
20260902192033 64 169 9.6 19.1 0.00 0.01 0.00 67 1004.0
20260902191252 64 182 10.4 23.5 0.00 0.01 0.00 67 1004.0
20260902190433 64 179 11.3 25.2 0.00 0.01 0.00 65 1004.0
20260902185931 64 220 10.4 25.2 0.00 0.01 0.00 64 1004.0
20260902185431 65 210 8.7 19.1 0.00 0.01 0.00 64 1004.0
20260902184932 65 164 7.0 13.9 0.00 0.01 0.00 64 1004.0
20260902184439 65 167 7.0 15.6 0.00 0.01 0.00 64 1004.0
20260902183931 65 218 5.2 15.6 0.00 0.01 0.00 64 1004.2
20260902183437 65 199 4.3 11.3 0.00 0.01 0.00 64 1004.2
20260902182930 64 154 7.0 14.8 0.00 0.01 0.00 66 1004.2
20260902182832 64 183 7.8 14.8 0.00 0.01 0.00 65 1004.4
20260902181416 64 186 10.4 19.1 0.00 0.01 0.00 64 1004.4
20260902180915 64 223 8.7 19.1 0.00 0.01 0.00 63 1004.4
20260902180409 65 221 7.8 13.9 0.00 0.01 0.00 61 1004.4
20260902180216 65 191 7.0 15.6 0.00 0.01 0.00 60 1004.4
20260902175741 65 198 6.1 15.6 0.00 0.01 0.00 63 1004.4
20260902174915 64 189 5.2 11.3 0.00 0.01 0.00 64 1004.4
20260902174409 64 177 4.3 9.6 0.00 0.01 0.00 66 1004.4
20260902173906 64 174 3.5 9.6 0.00 0.01 0.00 67 1004.4
20260902173405 64 236 3.5 6.1 0.00 0.01 0.00 67 1004.4
20260902172906 64 200 4.3 9.6 0.00 0.01 0.00 67 1004.4
20260902172403 63 202 3.5 9.6 0.00 0.01 0.00 69 1004.5
20260902172215 63 168 2.6 4.3 0.00 0.01 0.00 68 1004.5
20260902171407 62 193 2.6 4.3 0.00 0.01 0.00 71 1004.5
20260902170904 62 231 2.6 4.3 0.00 0.01 0.00 72 1004.7
20260902170404 61 229 2.6 4.3 0.00 0.01 0.00 72 1004.7
20260902165903 61 220 1.7 4.3 0.00 0.01 0.00 74 1004.7
20260902165405 61 214 2.6 5.2 0.00 0.01 0.00 76 1004.7
20260902165220 61 214 2.6 5.2 0.00 0.01 0.00 75 1004.7
20260902164406 61 199 1.7 3.5 0.00 0.01 0.00 76 1004.7
20260902163910 61 235 1.7 3.5 0.00 0.01 0.00 75 1004.9
20260902163406 61 188 1.7 3.5 0.00 0.01 0.00 76 1004.9
20260902162856 60 177 1.7 3.5 0.00 0.01 0.00 76 1004.9
20260902162350 60 216 1.7 3.5 0.00 0.01 0.00 76 1005.0
20260902161854 60 229 1.7 3.5 0.00 0.01 0.00 76 1005.0
20260902161652 60 177 2.6 4.3 0.00 0.01 0.00 76 1005.0
20260902160845 60 235 2.6 4.3 0.00 0.01 0.00 76 1005.1
20260902160347 60 141 2.6 4.3 0.00 0.01 0.00 76 1005.1
20260902155846 60 216 1.7 4.3 0.00 0.01 0.00 76 1005.1
20260902155347 60 209 2.6 6.1 0.00 0.01 0.00 76 1005.5
20260902154854 60 192 3.5 6.1 0.00 0.01 0.00 76 1005.5
20260902154347 60 218 3.5 5.2 0.00 0.01 0.00 75 1005.5
20260902153848 60 190 3.5 7.8 0.00 0.01 0.00 76 1005.6
20260902153341 60 209 2.6 7.8 0.00 0.01 0.00 76 1005.6
20260902153224 60 194 1.7 4.3 0.00 0.01 0.00 77 1005.6
20260902152424 60 169 2.6 4.3 0.00 0.01 0.00 76 1005.7
20260902151640 60 212 1.7 4.3 0.00 0.01 0.00 77 1005.7
20260902150933 60 209 1.7 4.3 0.00 0.01 0.00 78 1006.1
20260902145848 60 202 2.6 4.3 0.00 0.01 0.00 79 1006.1
20260902145345 59 233 2.6 4.3 0.00 0.01 0.00 79 1006.2
20260902144841 59 219 2.6 5.2 0.00 0.01 0.00 79 1006.2
20260902144338 59 225 2.6 6.1 0.00 0.01 0.00 80 1006.2
20260902143831 59 197 1.7 6.1 0.00 0.01 0.00 80 1006.1
20260902143333 59 179 1.7 3.5 0.00 0.01 0.00 81 1006.1
20260902142830 59 202 0.9 2.6 0.00 0.01 0.00 82 1006.1
20260902142335 59 144 0.9 1.7 0.00 0.01 0.00 82 1006.4
20260902141828 59 182 0.9 2.6 0.00 0.01 0.00 82 1006.4
20260902141331 59 225 0.9 3.5 0.00 0.01 0.00 82 1006.4
20260902140835 58 229 1.7 4.3 0.00 0.01 0.00 82 1006.6
20260902140320 58 188 2.6 4.3 0.00 0.01 0.00 83 1006.6
20260902140120 58 244 1.7 3.5 0.00 0.01 0.00 83 1006.6
20260902135638 58 254 1.7 3.5 0.00 0.01 0.00 83 1006.6
20260902134815 59 226 1.7 4.3 0.00 0.01 0.00 83 1006.6
20260902134309 59 197 1.7 4.3 0.00 0.01 0.00 83 1006.6
20260902134057 59 237 2.6 6.1 0.00 0.01 0.00 83 1006.7
20260902133305 59 263 2.6 6.1 0.00 0.01 0.00 83 1006.7
20260902132807 59 217 2.6 5.2 0.00 0.01 0.00 82 1006.7
20260902132306 59 221 2.6 5.2 0.00 0.01 0.00 82 1006.7
20260902131804 59 219 2.6 5.2 0.00 0.01 0.00 83 1006.7
20260902131304 59 206 3.5 7.8 0.00 0.01 0.00 82 1006.7
20260902130803 59 175 2.6 7.8 0.00 0.01 0.00 82 1007.0
20260902130304 59 174 2.6 4.3 0.00 0.01 0.00 82 1007.0
20260902130103 59 175 1.7 3.5 0.00 0.01 0.00 83 1007.0
20260902125256 59 206 1.7 3.5 0.00 0.01 0.00 83 1007.1
20260902124749 59 242 1.7 4.3 0.00 0.01 0.00 83 1007.1
20260902124249 59 209 1.7 4.3 0.00 0.01 0.00 83 1007.1
20260902123739 59 228 1.7 4.3 0.00 0.01 0.00 84 1007.2
20260902123547 59 227 1.7 4.3 0.00 0.01 0.00 84 1007.2
20260902122738 58 195 1.7 3.5 0.00 0.01 0.00 84 1007.2
20260902122238 58 204 1.7 4.3 0.00 0.01 0.00 84 1007.4
20260902121744 58 211 2.6 4.3 0.00 0.01 0.00 84 1007.4
20260902121238 58 222 2.6 4.3 0.00 0.01 0.00 84 1007.4
20260902120738 58 207 2.6 4.3 0.00 0.01 0.00 84 1007.5
20260902120241 58 221 1.7 4.3 0.00 0.01 0.00 84 1007.5
20260902115745 58 214 2.6 4.3 0.00 0.01 0.00 84 1007.5
20260902115238 58 226 2.6 4.3 0.00 0.01 0.00 84 1007.6
20260902114739 58 233 1.7 3.5 0.00 0.01 0.00 84 1007.6
20260902114234 59 233 2.6 4.3 0.00 0.01 0.00 84 1007.6
20260902114051 59 227 2.6 5.2 0.00 0.01 0.00 85 1007.6
20260902113232 59 195 3.5 6.1 0.00 0.01 0.00 84 1007.6
20260902112732 59 208 3.5 7.0 0.00 0.01 0.00 84 1007.6
20260902112538 58 204 3.5 9.6 0.00 0.01 0.00 84 1007.7
20260902111736 58 175 2.6 9.6 0.00 0.01 0.00 85 1007.7
20260902111233 58 178 2.6 6.1 0.00 0.01 0.00 85 1007.7
20260902110827 58 210 2.6 7.0 0.00 0.01 0.00 85 1007.7
20260902105713 58 192 2.6 5.2 0.00 0.01 0.00 85 1007.7
20260902105458 58 229 2.6 5.2 0.00 0.01 0.00 85 1007.8
20260902104706 58 267 3.5 8.7 0.00 0.01 0.00 85 1007.8
20260902104510 58 244 3.5 8.7 0.00 0.01 0.00 85 1007.8
20260902103655 58 227 2.6 6.1 0.00 0.01 0.00 85 1007.7
20260902103148 59 213 2.6 6.1 0.00 0.01 0.00 85 1007.7
20260902102645 59 214 2.6 6.1 0.00 0.01 0.00 85 1007.7
20260902102148 59 216 3.5 6.1 0.00 0.01 0.00 84 1007.7
20260902101934 59 209 3.5 6.1 0.00 0.01 0.00 84 1007.7
20260902101137 58 179 2.6 5.2 0.00 0.01 0.00 85 1007.8
20260902100633 58 173 2.6 5.2 0.00 0.01 0.00 85 1007.8
20260902100136 59 142 2.6 5.2 0.00 0.01 0.00 85 1007.8
20260902095634 59 163 1.7 4.3 0.00 0.01 0.00 86 1008.1
20260902095139 59 159 0.9 3.5 0.00 0.01 0.00 86 1008.1
20260902094632 59 179 1.7 3.5 0.00 0.01 0.00 86 1008.1
20260902094423 59 173 0.9 2.6 0.00 0.01 0.00 86 1008.2
20260902093634 59 210 1.7 4.3 0.00 0.01 0.00 86 1008.2
20260902093133 59 195 1.7 5.2 0.00 0.01 0.00 86 1008.2
20260902092629 59 208 1.7 5.2 0.00 0.01 0.00 86 1008.2
20260902092136 59 195 1.7 4.3 0.00 0.01 0.00 86 1008.2
20260902091635 59 186 1.7 4.3 0.00 0.01 0.00 86 1008.2
20260902091132 59 205 2.6 4.3 0.00 0.01 0.00 86 1008.4
20260902090622 59 204 2.6 4.3 0.00 0.01 0.00 86 1008.4
20260902090109 59 254 2.6 4.3 0.00 0.01 0.00 86 1008.4
20260902085614 59 261 1.7 4.3 0.00 0.01 0.00 86 1008.7
20260902085110 59 211 1.7 5.2 0.00 0.01 0.00 86 1008.7
20260902084934 59 232 2.6 5.2 0.00 0.01 0.00 85 1008.7
20260902084431 59 254 2.6 5.2 0.00 0.01 0.00 85 1008.7
20260902083605 59 269 2.6 5.2 0.00 0.01 0.00 85 1008.7
20260902083103 59 219 2.6 6.1 0.00 0.01 0.00 85 1008.7
20260902082601 59 221 2.6 6.1 0.00 0.01 0.00 85 1009.0
20260902082438 59 225 0.9 3.5 0.00 0.01 0.00 85 1009.0
20260902081935 60 259 0.9 3.5 0.00 0.01 0.00 85 1009.0
20260902081431 60 164 0.9 2.6 0.00 0.01 0.00 85 1009.2
20260902080611 60 169 2.6 5.2 0.00 0.01 0.00 85 1009.2
20260902080045 60 192 2.6 5.2 0.00 0.01 0.00 85 1009.2
20260902075533 60 153 2.6 4.3 0.00 0.01 0.00 85 1009.2
20260902075039 60 204 2.6 4.3 0.00 0.01 0.00 85 1009.2
20260902074539 60 174 2.6 4.3 0.00 0.01 0.00 85 1009.2
20260902074041 60 187 2.6 5.2 0.00 0.01 0.00 85 1009.2
20260902073537 60 185 1.7 5.2 0.00 0.01 0.00 85 1009.2
20260902073034 60 201 1.7 3.5 0.00 0.01 0.00 85 1009.2
20260902072532 60 179 1.7 4.3 0.00 0.01 0.00 85 1009.2
20260902072032 60 246 1.7 4.3 0.00 0.01 0.00 85 1009.2
20260902071531 60 196 1.7 4.3 0.00 0.01 0.00 85 1009.2
20260902071029 60 221 1.7 3.5 0.00 0.01 0.00 85 1009.2
20260902070838 60 189 1.7 3.5 0.00 0.01 0.00 85 1009.2
20260902070029 60 206 1.7 4.3 0.00 0.01 0.00 85 1009.2
20260902065855 60 217 2.6 5.2 0.00 0.01 0.01 84 1009.1
20260902065031 60 175 2.6 5.2 0.00 0.01 0.01 84 1009.1
20260902064528 60 198 2.6 5.2 0.00 0.01 0.01 84 1009.1
20260902064032 60 188 2.6 4.3 0.00 0.01 0.01 84 1009.0
20260902063531 60 192 2.6 5.2 0.00 0.01 0.01 84 1009.0
20260902063035 60 163 2.6 5.2 0.00 0.01 0.01 83 1009.0
20260902062522 60 187 2.6 4.3 0.00 0.01 0.01 82 1009.1
20260902062010 61 163 1.7 3.5 0.00 0.01 0.01 81 1009.1
20260902061505 61 196 0.9 3.5 0.00 0.01 0.01 79 1009.1
20260902061001 61 211 0.9 2.6 0.00 0.01 0.01 78 1009.2
20260902060812 61 241 0.9 3.5 0.00 0.01 0.01 78 1009.2
20260902060006 61 181 1.7 3.5 0.00 0.01 0.01 77 1009.2
20260902055503 61 184 1.7 4.3 0.00 0.01 0.01 77 1009.3
20260902055003 61 176 2.6 5.2 0.00 0.01 0.01 77 1009.3
20260902054504 61 139 2.6 5.2 0.00 0.01 0.01 76 1009.3
20260902054002 62 164 3.5 6.1 0.00 0.01 0.01 76 1009.6
20260902053505 62 169 2.6 6.1 0.00 0.01 0.01 76 1009.6
20260902053005 62 182 2.6 5.2 0.00 0.01 0.01 76 1009.6
20260902052507 62 241 2.6 5.2 0.00 0.01 0.01 76 1009.6
20260902052007 62 205 2.6 5.2 0.00 0.01 0.01 76 1009.6
20260902051813 62 253 2.6 4.3 0.00 0.01 0.01 76 1009.6
20260902051004 62 196 3.5 6.1 0.00 0.01 0.01 75 1009.7
20260902050501 62 173 4.3 7.0 0.00 0.01 0.01 75 1009.7
20260902050228 62 215 3.5 7.8 0.00 0.01 0.01 74 1009.7
20260902045501 62 219 3.5 8.7 0.00 0.01 0.01 74 1009.6
20260902045007 62 220 3.5 8.7 0.00 0.01 0.01 74 1009.6
20260902044502 62 188 2.6 6.1 0.00 0.01 0.01 74 1009.6
20260902044001 62 206 1.7 6.1 0.00 0.01 0.01 74 1009.6
20260902043503 62 244 1.7 5.2 0.00 0.01 0.01 74 1009.6
20260902043001 62 250 1.7 3.5 0.00 0.01 0.01 74 1009.6
20260902042501 62 275 1.7 3.5 0.00 0.01 0.01 74 1009.7
20260902042003 62 238 1.7 3.5 0.00 0.01 0.01 74 1009.7
20260902041507 62 242 1.7 3.5 0.00 0.01 0.01 74 1009.7
20260902041006 62 252 0.9 2.6 0.00 0.01 0.01 74 1009.6
20260902040817 62 281 1.7 3.5 0.00 0.01 0.01 74 1009.6
20260902040004 62 290 1.7 3.5 0.00 0.01 0.01 74 1009.6
20260902035501 62 273 1.7 3.5 0.00 0.01 0.01 74 1009.5
20260902035003 62 281 1.7 3.5 0.00 0.01 0.01 73 1009.5
20260902034501 62 261 1.7 2.6 0.00 0.01 0.01 74 1009.5
20260902034006 62 261 1.7 3.5 0.00 0.01 0.01 74 1009.5